Guadalupe Pass, TX

6:15 AM MST on December 08, 2019 (GMT -0700)
Guadalupe Pass

Weather History for KGDP - November, 2019

Change the Weather History Date:

Friday, November 15, 2019

  Actual Average Record
Temperature  
Mean Temperature 45 °F -  
Max Temperature 55 °F 57 °F 71 °F (2016)
Min Temperature 35 °F 39 °F 19 °F (1997)
Degree Days  
Heating Degree Days 20    
Moisture  
Dew Point 25 °F    
Average Humidity 48    
Maximum Humidity 72    
Minimum Humidity 28    
Precipitation  
Precipitation 0.00 in - - ()
Sea Level Pressure  
Sea Level Pressure 30.27 in    
Wind  
Wind Speed 12 mph ()    
Max Wind Speed 26 mph    
Max Gust Speed -    
Visibility 10.0 miles    
Events      
Averages and records for this station are not official NWS values.
T = Trace of Precipitation, MM = Missing Value Source: Averaged Metar Reports

Daily Weather History Graph

Daily Weather History Graph

Search for Another Location

Airport or City:

Astronomy

Nov. 15, 2019 Rise Set
Actual Time 6:27 AM MST 4:59 PM MST
Civil Twilight 6:01 AM MST 5:25 PM MST
Nautical Twilight 5:32 AM MST 5:55 PM MST
Astronomical Twilight 5:03 AM MST 6:24 PM MST
Moon 7:43 PM MST (11/15) 9:20 AM MST (11/15)
Length of Visible Light 11h 24m
Length of Day
10h 32m
Waning Gibbous, 89% of the Moon is Illuminated
Nov 15
Waning Gibbous
Nov 19
Last Quarter
Nov 26
New
Dec 3
First Quarter
Dec 11
Full

Hourly Weather History & Observations

Time (MST) Temp. Windchill Dew Point Humidity Pressure Visibility Wind Dir Wind Speed Gust Speed Precip Events Conditions
12:51 AM 36.0 °F 27.1 °F 27.0 °F 70% 30.38 in 10.0 mi NE 13.8 mph - N/A   Clear
1:51 AM 35.1 °F 26.4 °F 27.0 °F 72% 30.37 in 10.0 mi NE 12.7 mph - N/A   Clear
2:51 AM 35.1 °F 26.4 °F 27.0 °F 72% 30.36 in 10.0 mi ENE 12.7 mph - N/A   Clear
3:51 AM 39.9 °F 36.7 °F 21.0 °F 47% 30.35 in 10.0 mi East 4.6 mph - N/A   Clear
4:51 AM 39.9 °F 36.7 °F 19.0 °F 43% 30.35 in 10.0 mi ENE 4.6 mph - N/A   Clear
5:51 AM 39.9 °F - 21.0 °F 47% 30.36 in 10.0 mi Calm Calm - N/A   Clear
6:51 AM 37.0 °F - 25.0 °F 62% 30.38 in 10.0 mi Calm Calm - N/A   Clear
7:51 AM 35.1 °F 28.6 °F 27.0 °F 72% 30.40 in 10.0 mi WSW 8.1 mph - N/A   Clear
8:51 AM 39.0 °F 31.0 °F 27.0 °F 62% 30.40 in 10.0 mi WSW 13.8 mph - N/A   Clear
9:51 AM 43.0 °F 35.7 °F 28.0 °F 56% 30.38 in 10.0 mi WSW 15.0 mph - N/A   Clear
10:51 AM 46.0 °F 38.0 °F 27.0 °F 47% 30.34 in 10.0 mi SW 21.9 mph - N/A   Clear
11:51 AM 51.1 °F - 27.0 °F 39% 30.28 in 10.0 mi SW 23.0 mph - N/A   Clear
12:51 PM 52.0 °F - 27.0 °F 38% 30.24 in 9.0 mi WSW 26.5 mph - N/A   Clear
1:51 PM 55.0 °F - 26.1 °F 33% 30.20 in 10.0 mi SW 26.5 mph - N/A   Clear
2:51 PM 55.9 °F - 23.0 °F 28% 30.18 in 10.0 mi WSW 23.0 mph - N/A   Clear
3:51 PM 54.0 °F - 23.0 °F 30% 30.17 in 10.0 mi WSW 20.7 mph - N/A   Clear
4:51 PM 50.0 °F - 25.0 °F 38% 30.19 in 10.0 mi WSW 15.0 mph - N/A   Clear
5:51 PM 48.0 °F - 25.0 °F 41% 30.20 in 10.0 mi WSW 9.2 mph - N/A   Clear
6:51 PM 48.0 °F - 23.0 °F 37% 30.22 in 10.0 mi WSW 10.4 mph - N/A   Clear
7:51 PM 48.0 °F - 24.1 °F 39% 30.21 in 10.0 mi WSW 11.5 mph - N/A   Clear
8:51 PM 46.9 °F - 25.0 °F 42% 30.19 in 10.0 mi SW 12.7 mph - N/A   Clear
9:51 PM 46.0 °F 39.3 °F 26.1 °F 46% 30.17 in 10.0 mi WSW 16.1 mph - N/A   Clear
10:51 PM 45.0 °F 36.4 °F 26.1 °F 48% 30.14 in 10.0 mi WSW 23.0 mph - N/A   Clear
11:51 PM 41.0 °F 31.4 °F 26.1 °F 55% 30.14 in 10.0 mi WSW 21.9 mph - N/A   Clear